EBAD TEST MASS (55446 NORAD) Tracking and Keplerian Element Data

This shows tracking and keplerian element data for the satellite.

Feedback or suggestion? Click here.




ElementValue
Catalog55446
NameEBAD TEST MASS
Epoch Orbit1547
Epoch Day127.07387298
Epoch Year2023
RAAN174.036
Inclination69.9982
Eccentricity0.0005066
Argument of Perigee305.4664
Mean Anonmoly54.6075
Mean Motion16.03801085
Decay Rate0.00255907
L11 55446U 23014BH 23127.07387298 .00255907 32550-4 40124-3 0 9994
L22 55446 69.9982 174.0360 0005066 305.4664 54.6075 16.03801085 15471



Live tracking and technical data element details for EBAD TEST MASS (NORAD 55446). EBAD TEST MASS can be tracked NOW for your location showing map with azimuth and elevation plus other details from your city location.







IsCatalogInMostPopularTable: catalog: 55446, numindb: -1

Insert: records affected: 1


GetName: 55446 EBAD TEST MASS

Hit Count: inserted at: Mon, 05 Jun 2023 20:48:43 GMT